When you browse on this site, cookies collect data to enhance your experience and personalize the content and advertising you see.
Visit our Privacy Policy to learn more. By continuing to use the site, you agree to this use of cookies and data.
  • In Switzerland
  • List of Countries
  • For 7 days
  • Water Temperature
  • Weather Map
  • Weather Widgets
  • user-avatar
    Login

    Hourly Weather Bautzen

    Today, 25 May, Monday

    Time Temperature Precipitation Wind Pressure Humidity
    00:00 +8°C° 0.2 mm 4 mps 751 mmHg 96%
    01:00 +9°C° 0.2 mm 3 mps 751 mmHg 97%
    02:00 +9°C° 0 mm 3 mps 751 mmHg 97%
    03:00 +8°C° 0 mm 3 mps 751 mmHg 97%
    04:00 +8°C° 0 mm 3 mps 751 mmHg 97%
    05:00 +7°C° 0.1 mm 4 mps 751 mmHg 95%
    06:00 +8°C° 0.1 mm 4 mps 751 mmHg 93%
    07:00 +8°C° 0.1 mm 4 mps 751 mmHg 91%
    08:00 +8°C° 0.3 mm 4 mps 751 mmHg 91%
    09:00 +9°C° 0.3 mm 5 mps 752 mmHg 91%
    10:00 +9°C° 0.3 mm 5 mps 752 mmHg 90%
    11:00 +9°C° 0.5 mm 5 mps 752 mmHg 88%
    12:00 +10°C° 0.5 mm 5 mps 752 mmHg 86%
    13:00 +12°C° 0.5 mm 5 mps 752 mmHg 85%
    14:00 +12°C° 0.3 mm 5 mps 752 mmHg 85%
    15:00 +12°C° 0.3 mm 5 mps 752 mmHg 85%
    16:00 +12°C° 0.3 mm 5 mps 752 mmHg 86%
    17:00 +12°C° 0.1 mm 4 mps 752 mmHg 86%
    18:00 +11°C° 0.1 mm 4 mps 753 mmHg 87%
    19:00 +11°C° 0.1 mm 3 mps 753 mmHg 88%
    20:00 +10°C° 0 mm 3 mps 753 mmHg 90%
    21:00 +9°C° 0 mm 2 mps 754 mmHg 93%
    22:00 +9°C° 0 mm 2 mps 754 mmHg 96%
    23:00 +8°C° 0 mm 2 mps 754 mmHg 96%

    Tomorrow, 26 May, Tuesday

    Time Temperature Precipitation Wind Pressure Humidity
    00:00 +8°C° 0 mm 2 mps 754 mmHg 97%
    01:00 +8°C° 0 mm 2 mps 755 mmHg 98%
    02:00 +7°C° 0 mm 2 mps 755 mmHg 98%
    03:00 +7°C° 0 mm 2 mps 755 mmHg 98%
    04:00 +7°C° 0 mm 2 mps 755 mmHg 98%
    05:00 +8°C° 0 mm 2 mps 755 mmHg 95%
    06:00 +9°C° 0 mm 2 mps 756 mmHg 93%
    07:00 +9°C° 0 mm 2 mps 756 mmHg 90%
    08:00 +11°C° 0 mm 3 mps 756 mmHg 82%
    09:00 +13°C° 0 mm 3 mps 756 mmHg 73%
    10:00 +15°C° 0 mm 4 mps 757 mmHg 65%
    11:00 +17°C° 0 mm 4 mps 756 mmHg 59%
    12:00 +18°C° 0 mm 4 mps 756 mmHg 54%
    13:00 +19°C° 0 mm 4 mps 756 mmHg 48%
    14:00 +19°C° 0 mm 4 mps 756 mmHg 49%
    15:00 +19°C° 0 mm 4 mps 755 mmHg 49%
    16:00 +19°C° 0 mm 4 mps 755 mmHg 49%
    17:00 +18°C° 0 mm 3 mps 755 mmHg 55%
    18:00 +17°C° 0 mm 3 mps 755 mmHg 62%
    19:00 +16°C° 0 mm 2 mps 755 mmHg 68%
    20:00 +14°C° 0 mm 2 mps 755 mmHg 73%
    21:00 +12°C° 0 mm 1 mps 756 mmHg 78%
    22:00 +11°C° 0 mm 1 mps 756 mmHg 83%
    23:00 +10°C° 0 mm 1 mps 756 mmHg 85%

    Day after tomorrow, 27 May, Wednesday

    Time Temperature Precipitation Wind Pressure Humidity
    00:00 +9°C° 0 mm 1 mps 756 mmHg 87%
    01:00 +8°C° 0 mm 0 mps 756 mmHg 90%
    02:00 +8°C° 0 mm 1 mps 756 mmHg 90%
    03:00 +8°C° 0 mm 1 mps 755 mmHg 91%
    04:00 +8°C° 0 mm 1 mps 755 mmHg 92%
    05:00 +10°C° 0 mm 1 mps 755 mmHg 87%
    06:00 +11°C° 0 mm 1 mps 756 mmHg 83%
    07:00 +13°C° 0 mm 2 mps 756 mmHg 78%
    08:00 +15°C° 0 mm 2 mps 756 mmHg 70%
    09:00 +16°C° 0 mm 2 mps 755 mmHg 61%
    10:00 +18°C° 0 mm 3 mps 755 mmHg 53%
    11:00 +19°C° 0 mm 3 mps 755 mmHg 50%
    12:00 +20°C° 0 mm 3 mps 755 mmHg 47%
    13:00 +20°C° 0 mm 3 mps 754 mmHg 45%
    14:00 +20°C° 0 mm 3 mps 754 mmHg 47%
    15:00 +21°C° 0 mm 3 mps 754 mmHg 48%
    16:00 +21°C° 0 mm 3 mps 753 mmHg 50%
    17:00 +19°C° 0 mm 3 mps 753 mmHg 59%
    18:00 +18°C° 0 mm 3 mps 753 mmHg 67%
    19:00 +16°C° 0 mm 2 mps 753 mmHg 75%
    20:00 +15°C° 0.1 mm 2 mps 753 mmHg 81%
    21:00 +14°C° 0.1 mm 2 mps 753 mmHg 86%
    22:00 +13°C° 0.1 mm 2 mps 753 mmHg 91%
    23:00 +12°C° 0 mm 2 mps 753 mmHg 92%

    28 May, Thursday

    Time Temperature Precipitation Wind Pressure Humidity
    00:00 +12°C° 0 mm 2 mps 753 mmHg 93%
    01:00 +10°C° 0 mm 2 mps 753 mmHg 93%
    02:00 +9°C° 0 mm 2 mps 753 mmHg 94%
    03:00 +8°C° 0 mm 2 mps 753 mmHg 95%
    04:00 +8°C° 0 mm 2 mps 753 mmHg 96%
    05:00 +8°C° 0 mm 2 mps 753 mmHg 92%
    06:00 +9°C° 0 mm 3 mps 753 mmHg 88%
    07:00 +9°C° 0 mm 3 mps 753 mmHg 84%
    08:00 +11°C° 0 mm 4 mps 753 mmHg 76%
    09:00 +12°C° 0 mm 4 mps 753 mmHg 67%
    10:00 +13°C° 0 mm 5 mps 752 mmHg 59%
    11:00 +14°C° 0 mm 5 mps 752 mmHg 57%
    12:00 +15°C° 0 mm 5 mps 752 mmHg 54%
    13:00 +15°C° 0 mm 5 mps 751 mmHg 52%
    14:00 +17°C° 0 mm 4 mps 751 mmHg 52%
    15:00 +17°C° 0 mm 4 mps 751 mmHg 52%
    16:00 +17°C° 0 mm 4 mps 750 mmHg 52%
    17:00 +15°C° 0 mm 4 mps 750 mmHg 58%
    18:00 +14°C° 0 mm 3 mps 750 mmHg 64%
    19:00 +13°C° 0 mm 3 mps 750 mmHg 70%
    20:00 +13°C° 0 mm 2 mps 750 mmHg 76%
    21:00 +10°C° 0 mm 2 mps 751 mmHg 82%
    22:00 +10°C° 0 mm 1 mps 751 mmHg 88%
    23:00 +9°C° 0 mm 1 mps 751 mmHg 90%

    29 May, Friday

    Time Temperature Precipitation Wind Pressure Humidity
    00:00 +9°C° 0 mm 1 mps 751 mmHg 92%
    01:00 +8°C° 0 mm 1 mps 751 mmHg 94%
    02:00 +8°C° 0 mm 1 mps 750 mmHg 94%
    03:00 +7°C° 0 mm 1 mps 750 mmHg 95%
    04:00 +6°C° 0 mm 0 mps 750 mmHg 95%
    05:00 +9°C° 0 mm 1 mps 750 mmHg 90%
    06:00 +10°C° 0 mm 1 mps 750 mmHg 86%
    07:00 +12°C° 0 mm 1 mps 750 mmHg 81%
    08:00 +13°C° 0.3 mm 2 mps 750 mmHg 75%
    09:00 +14°C° 0.3 mm 2 mps 749 mmHg 70%
    10:00 +14°C° 0.3 mm 3 mps 749 mmHg 64%
    11:00 +16°C° 0.3 mm 3 mps 749 mmHg 60%
    12:00 +16°C° 0.3 mm 3 mps 748 mmHg 56%
    13:00 +17°C° 0.3 mm 3 mps 748 mmHg 52%
    14:00 +15°C° 0.5 mm 4 mps 747 mmHg 57%
    15:00 +15°C° 0.5 mm 4 mps 747 mmHg 62%
    16:00 +14°C° 0.5 mm 4 mps 747 mmHg 66%
    17:00 +13°C° 0.2 mm 4 mps 747 mmHg 67%
    18:00 +13°C° 0.2 mm 4 mps 747 mmHg 67%
    19:00 +12°C° 0.2 mm 4 mps 747 mmHg 68%
    20:00 +10°C° 0 mm 3 mps 747 mmHg 73%
    21:00 +8°C° 0 mm 3 mps 747 mmHg 79%
    22:00 +7°C° 0 mm 2 mps 747 mmHg 84%
    23:00 +6°C° 0 mm 2 mps 748 mmHg 87%

    30 May, Saturday

    Time Temperature Precipitation Wind Pressure Humidity
    00:00 +6°C° 0 mm 2 mps 748 mmHg 90%
    01:00 +6°C° 0 mm 1 mps 748 mmHg 93%
    02:00 +6°C° 0 mm 1 mps 748 mmHg 93%
    03:00 +5°C° 0 mm 1 mps 748 mmHg 93%
    04:00 +5°C° 0 mm 1 mps 748 mmHg 94%
    05:00 +6°C° 0 mm 2 mps 748 mmHg 88%
    06:00 +7°C° 0 mm 2 mps 748 mmHg 83%
    07:00 +9°C° 0 mm 3 mps 748 mmHg 77%
    08:00 +11°C° 0 mm 4 mps 748 mmHg 71%
    09:00 +12°C° 0 mm 4 mps 748 mmHg 64%
    10:00 +14°C° 0 mm 5 mps 748 mmHg 58%
    11:00 +14°C° 0.1 mm 5 mps 747 mmHg 57%
    12:00 +15°C° 0.1 mm 6 mps 747 mmHg 56%
    13:00 +15°C° 0.1 mm 6 mps 747 mmHg 55%
    14:00 +14°C° 0.2 mm 5 mps 747 mmHg 62%
    15:00 +14°C° 0.2 mm 3 mps 747 mmHg 69%
    16:00 +14°C° 0.2 mm 2 mps 746 mmHg 76%
    17:00 +14°C° 0.1 mm 2 mps 746 mmHg 76%
    18:00 +13°C° 0.1 mm 3 mps 746 mmHg 76%
    19:00 +13°C° 0.1 mm 3 mps 746 mmHg 76%
    20:00 +12°C° 0.1 mm 3 mps 746 mmHg 81%
    21:00 +11°C° 0.1 mm 3 mps 746 mmHg 85%
    22:00 +10°C° 0.1 mm 2 mps 746 mmHg 90%
    23:00 +10°C° 0.1 mm 2 mps 746 mmHg 91%
    Show more